Weather in Novyye Paraty

Russia / Mari El Republic     55°59′00″N   48°39′25″E
temp.,
°C
wind,
m/s
gust,
m/s
humid.,
%
clouds,
%
prec.,
mm/h
press.,
hPa
HPBL,
m
25 february, thu
thu2500:00−26w119791 0.0 103520
03:00−26ssw229874 0.0 103419
06:00−24s2497100 0.0 1031104
09:00−21sse4892100 0.0 1029256
12:00−17sse61088100 0.0 1025396
15:00−16sse71195100 0.7 1022517
18:00−16sse71295100 1.0 1020562
21:00−16sse61095100 1.6 1018511
26 february, fri
fri2600:00−16sse51095100 0.4 1016427
03:00−16sse5995100 0.9 1016400
06:00−16se4995100 0.2 1014330
09:00−14se589499 0.4 1014370
12:00−11se5893100 0.2 1012424
15:00−9se61093100 0.4 1009434
18:00−9se71294100 0.9 1004422
21:00−8se81595100 4.1 999454
27 february, sat
sat2700:00−5se61096100 4.8 994285
03:00+1w61399100 6.6 993555
06:000w71297100 1.4 992688
09:000wsw5999100 1.9 993539
12:000w37100100 0.8 993416
15:00−4nne4695100 1.3 995309
18:00−9n5994100 0.3 997387
21:00−10n5994100 0.7 1000413
28 february, sun
sun2800:00−13n5109399 0.1 1001378
03:00−16nnw51094100 0.1 1004332
06:00−18nnw5109478 0.0 1005287
09:00−18nnw599258 0.0 1007343
12:00−15nnw589082 0.0 1009465
15:00−14nnw598991 0.0 1011535
18:00−17nnw41094100 0.0 1013269
21:00−18nnw499593 0.0 1015195
1 march, mon
mon100:00−20nnw369710 0.0 1017123
03:00−21nnw36965 0.0 1019117
06:00−22nnw35960 0.0 102188
09:00−19n46930 0.0 1022239
12:00−14nnw358830 0.0 1023359
15:00−12nw359062 0.0 1023407
18:00−16w239761 0.0 102221
21:00−16sw359774 0.0 102196